7 * 24
多渠道服务支持
STARLINK-11593 是 SpaceX Starlink 卫星互联网项目中的一颗低轨道卫星,属于第二代 Starlink 卫星星座的一部分。该卫星于2023年发射,旨在为全球用户提供高速、低延迟的互联网服务。它运行在约550公里高度的近地轨道,配备先进通信设备,支持宽带数据传输。Starlink 项目致力于改善偏远地区的网络接入,同时推动全球互联网覆盖的普及。
美国
(US)
| 数据来源 | 国际轨道数据 |
| 星历时间: | 2025-12-21T10:54:38+0800 19小时前 查看轨道信息 |
| 半长轴: | 6734.31km |
| 偏心率: | 0.0004313 |
| 轨道倾角: | 43.003° |
| 近地点辐角 | 286.146° |
| 升交点赤经 | 17.863° |
| 平近点角 | 73.893° |
| 近地点: | 353.268km |
| 远地点: | 359.078km |
| 周期: | 91.664分钟 |
| 每日圈数: | 15.70953 |